Location: Unspecified
(40.7945°N, 111.1337°W)
Time: 19:22:24
(UTC-06:00)

CZ-3 Stage 3 - Visible Passes

Search period start: 26 May 2019 00:00
Search period end: 05 June 2019 00:00
Orbit: 503 x 34688 km, 30.5° (Epoch: 26 May)

Date Brightness Start Highest point End Pass type
(mag) Time Alt. Az. Time Alt. Az. Time Alt. Az.
26 May 4.7 00:38:38 39° SSW 00:42:17 51° SSE 08:39:27 10° SSE visible
28 May 6.5 04:01:15 10° W 04:24:29 65° S 12:23:09 10° SSW visible
29 May 4.8 00:27:17 30° SSW 00:32:05 51° SSE 08:25:14 10° SSE visible
31 May 6.5 03:51:11 10° W 04:14:03 65° S 12:10:17 10° SSW visible
01 Jun 5.0 00:14:43 10° SW 00:21:54 52° SSE 08:10:43 10° SSE visible
03 Jun 6.5 03:41:09 10° W 04:03:39 64° S 11:57:21 10° SSW visible
04 Jun 5.0 00:04:40 10° SW 00:11:44 52° SSE 07:55:52 10° SSE visible
